TimeEST,TemperatureF,Dew PointF,Humidity,Sea Level PressureIn,VisibilityMPH,Wind Direction,Wind SpeedMPH,Gust SpeedMPH,PrecipitationIn,Events,Conditions,WindDirDegrees,DateUTC
12:56 AM,37.9,37.9,100,30.40,0.5,Calm,Calm,-,N/A,Fog,Fog,0,2012-12-02 05:56:00
1:56 AM,37.9,37.9,100,30.39,0.5,Calm,Calm,-,N/A,Fog,Fog,0,2012-12-02 06:56:00
2:56 AM,37.9,37.9,100,30.38,0.2,Calm,Calm,-,N/A,Fog,Fog,0,2012-12-02 07:56:00
3:56 AM,37.9,37.9,100,30.37,0.2,Calm,Calm,-,N/A,Fog,Fog,0,2012-12-02 08:56:00
4:56 AM,37.9,37.9,100,30.36,0.2,Calm,Calm,-,N/A,Fog,Fog,0,2012-12-02 09:56:00
5:56 AM,39.0,37.9,96,30.36,0.5,Calm,Calm,-,N/A,Fog,Fog,0,2012-12-02 10:56:00
6:56 AM,39.0,39.0,100,30.35,0.2,Calm,Calm,-,N/A,Fog,Fog,0,2012-12-02 11:56:00
7:23 AM,39.2,39.2,100,30.32,0.1,Calm,Calm,-,N/A,Fog,Fog,0,2012-12-02 12:23:00
7:56 AM,39.0,39.0,100,30.34,0.1,Calm,Calm,-,N/A,Fog,Fog,0,2012-12-02 12:56:00
8:24 AM,39.2,39.2,100,30.32,0.5,Calm,Calm,-,N/A,Fog,Fog,0,2012-12-02 13:24:00
8:35 AM,39.2,39.2,100,30.32,0.8,Calm,Calm,-,N/A,,Overcast,0,2012-12-02 13:35:00
8:56 AM,41.0,39.9,96,30.33,0.8,Calm,Calm,-,N/A,,Overcast,0,2012-12-02 13:56:00
9:07 AM,41.0,39.2,93,30.32,1.0,ESE,3.5,-,N/A,,Overcast,110,2012-12-02 14:07:00
9:56 AM,42.1,39.9,92,30.32,1.8,ESE,4.6,-,N/A,,Overcast,120,2012-12-02 14:56:00
10:35 AM,42.8,41.0,93,30.29,2.0,SE,5.8,-,N/A,,Overcast,130,2012-12-02 15:35:00
10:56 AM,44.6,41.0,87,30.28,2.5,SE,6.9,-,N/A,,Overcast,140,2012-12-02 15:56:00
11:29 AM,44.6,42.8,93,30.25,3.0,ESE,5.8,-,N/A,,Overcast,120,2012-12-02 16:29:00
11:56 AM,46.0,41.0,83,30.25,3.0,ESE,3.5,-,N/A,,Haze,120,2012-12-02 16:56:00
12:21 PM,46.4,42.8,87,30.22,4.0,Calm,Calm,-,N/A,,Haze,0,2012-12-02 17:21:00
12:56 PM,48.0,42.1,80,30.20,4.0,Calm,Calm,-,N/A,,Haze,0,2012-12-02 17:56:00
1:56 PM,48.2,41.0,76,30.15,5.0,SE,3.5,-,N/A,,Haze,130,2012-12-02 18:56:00
2:56 PM,48.9,41.0,74,30.13,5.0,Calm,Calm,-,N/A,,Haze,0,2012-12-02 19:56:00
3:56 PM,50.0,43.0,77,30.13,5.0,Calm,Calm,-,N/A,,Haze,0,2012-12-02 20:56:00
4:56 PM,48.9,43.0,80,30.12,5.0,Calm,Calm,-,0.00,Rain,Light Rain,0,2012-12-02 21:56:00
5:56 PM,48.0,45.0,89,30.14,4.0,NW,4.6,-,0.00,,Overcast,320,2012-12-02 22:56:00
6:56 PM,46.0,44.1,93,30.14,3.0,Calm,Calm,-,N/A,,Overcast,0,2012-12-02 23:56:00
7:36 PM,44.6,44.6,100,30.13,2.0,ESE,3.5,-,N/A,,Overcast,110,2012-12-03 00:36:00
7:56 PM,46.9,45.0,93,30.15,3.0,Calm,Calm,-,N/A,,Overcast,0,2012-12-03 00:56:00
8:56 PM,46.0,44.1,93,30.14,3.0,Calm,Calm,-,N/A,,Overcast,0,2012-12-03 01:56:00
9:56 PM,45.0,43.0,93,30.15,3.0,Calm,Calm,-,N/A,,Overcast,0,2012-12-03 02:56:00
10:56 PM,46.0,44.1,93,30.14,3.0,Calm,Calm,-,N/A,,Overcast,0,2012-12-03 03:56:00
11:26 PM,44.6,44.6,100,30.13,3.0,East,3.5,-,N/A,,Overcast,100,2012-12-03 04:26:00
11:56 PM,46.0,44.1,93,30.14,3.0,Calm,Calm,-,N/A,,Overcast,0,2012-12-03 04:56:00